Regional Weather Roundup
Issued by NWS

Home | Current Version | Previous Version | Graphics & Text | Print | Product List | Glossary On
Versions: 1 2 3 4 5 6 7 8 9 10 11 12 13 14 15 16 17 18 19 20 21 22 23 24 25 26 27 28 29 30 31 32 33 34 35 36 37 38 39 40 41 42 43 44 45 46 47 48 49 50
000
ASUS43 KMPX 250010
RWRMN
WEATHER ROUNDUP FOR MINNESOTA
NATIONAL WEATHER SERVICE TWIN CITIES/CHANHASSEN MN
600 PM CST SAT JAN 24 2015


NOTE: "FAIR" INDICATES FEW OR NO CLOUDS BELOW 12,000 FEET WITH NO
SIGNIFICANT WEATHER AND/OR OBSTRUCTIONS TO VISIBILITY. N/A MEANS
CURRENT SKY AND/OR WEATHER CONDITIONS ARE NOT AVAILABLE.

MNZ060>063-068>070-250100-
   Twin Cities Metro

CITY           SKY/WX    TMP DP  RH WIND       PRES   REMARKS
TWIN CITIES    CLOUDY    39  30  70 CALM      29.59S
6HR MIN TEMP:  38; 6HR MAX TEMP:  42;

ST PAUL        CLOUDY    39  31  72 CALM      29.60R
CRYSTAL        CLOUDY    38  31  76 CALM      29.58R
LAKEVILLE      CLOUDY    34  30  86 CALM      29.59R
EDEN PRAIRIE   CLOUDY    36  31  82 CALM      29.58S
6HR MIN TEMP:  36; 6HR MAX TEMP:  41;

SOUTH ST PAUL  CLOUDY    37  32  81 CALM      29.59S
LAKE ELMO      FAIR      34  32  93 E3        29.60R
$$
MNZ001>005-007-008-013>017-022>024-027-028-250100-
   Northwest Minnesota

CITY           SKY/WX    TMP DP  RH WIND       PRES   REMARKS
BEMIDJI        CLOUDY    32  28  84 N5        29.63R WCI  28
HALLOCK        CLOUDY    23  18  80 N18       29.74R WCI   9
ROSEAU         PTCLDY    18  10  73 NE10      29.76R WCI   6
WARROAD        PTCLDY    16  10  79 NE9       29.76R WCI   4
THIEF RVR FALL CLOUDY    30  23  74 NE13      29.68R WCI  20
CROOKSTON      CLOUDY    30  27  86 NE9       29.69R WCI  22
FOSSTON        CLOUDY    30  27  86 NE7       29.65R WCI  23
DETROIT LAKES  CLOUDY    32  32 100 CALM      29.61S
MOORHEAD       CLOUDY    34  34 100 N7        29.63S WCI  28
PARK RAPIDS    CLOUDY    35  29  78 NE6       29.60R WCI  30
MAHNOMEN       CLOUDY    32  31  96 N8        29.62R WCI  25
$$
MNZ006-009>011-018-025>026-250100-
   North Central Minnesota

CITY           SKY/WX    TMP DP  RH WIND       PRES   REMARKS
BAUDETTE       PTCLDY    18   7  62 NE12      29.71R WCI   5
FLAG ISLAND    MOCLDY    14   7  73 NE8       29.77R WCI   3
INTL FALLS     CLEAR     15   5  64 NE9       29.74R WCI   3
6HR MIN TEMP:  15; 6HR MAX TEMP:  24;

WASKISH        PTCLDY    23  16  74 CALM      29.68R
BIG FORK       PTCLDY    27  18  69 NE7       29.67R WCI  19
LONGVILLE      CLOUDY    34  28  80 CALM      29.62R
GRAND RAPIDS   CLOUDY    32  25  74 NE7       29.63R WCI  26
CRANE LAKE     FAIR      16   7  67 NE5       29.76R WCI   9
ORR            CLEAR     21  10  63 CALM      29.67R
COOK           CLEAR     23  16  74 NE3       29.68S
WALKER         CLOUDY    32  28  85 CALM      29.62R
$$
MNZ012-019>021-037-250100-
   Northeast Minnesota

CITY           SKY/WX    TMP DP  RH WIND       PRES   REMARKS
DULUTH         FLURRIES  27  23  85 E18       29.63R WCI  14
6HR MIN TEMP:  27; 6HR MAX TEMP:  36; 6HR PCP: TRACE;

ELY            PTCLDY    19  12  73 NE7       29.69R WCI  10
HIBBING        PTCLDY    30  21  69 NE8       29.64R WCI  22
EVELETH        PTCLDY    28  23  80 NE6       29.66R WCI  22
DULUTH HARBOR  LGT SNOW  30  28  93 NE29      29.68R WCI  15
TWO HARBORS    CLOUDY    28  23  80 E15G24    29.68R WCI  17
SILVER BAY     CLOUDY    27  21  80 E14       29.69S WCI  15
GRAND MARAIS     N/A     19   8  62 N6        29.79R WCI  11
G MARAIS ARPRT CLEAR     10   1  67 N5        29.70R WCI   2
$$
MNZ029>031-032-039>041-046>048-054>057-064-250100-
   West Central Minnesota

CITY           SKY/WX    TMP DP  RH WIND       PRES   REMARKS
FERGUS FALLS   CLOUDY    34  30  86 NE5       29.62R WCI  30
WHEATON        CLOUDY    30  28  93 N3        29.62R
MORRIS         CLOUDY    34  30  86 CALM      29.57S
ALEXANDRIA     CLOUDY    33  29  85 N3        29.58R
ELBOW LAKE     CLOUDY    31  30  95 CALM      29.58R
WADENA         CLOUDY    30  30 100 CALM      29.60R FOG
GLENWOOD       CLOUDY    34  30  86 CALM      29.58S
APPLETON         N/A     36  32  87 N6        29.59R
BENSON         CLOUDY    34  30  86 CALM      29.58S
ORTONVILLE     LGT RAIN  34  30  86 N5        29.58S WCI  30
MADISON        DRIZZLE   37  36  93 N3        29.58R
WILLMAR        FAIR      36  30  80 CALM      29.58F
$$
MNZ033>034-036-042>043-049>051-058-059-250100-
   Central Minnesota

CITY           SKY/WX    TMP DP  RH WIND       PRES   REMARKS
ST CLOUD       CLOUDY    36  31  82 N5        29.58R
6HR MIN TEMP:  36; 6HR MAX TEMP:  42;

SAUK CENTRE    CLOUDY    34  32  92 N5        29.58S WCI  29
PAYNESVILLE    CLOUDY    31  30  94 N3        29.58S
AITKIN         CLOUDY    37  30  75 NE3       29.59S
PINE RIVER     CLOUDY    34  30  86 N3        29.65R
BRAINERD       CLOUDY    33  30  88 NE6       29.60R WCI  28
STAPLES        CLOUDY    30  30 100 CALM      29.60R
LONG PRAIRIE   CLOUDY    32  32 100 N6        29.59R WCI  26
LITTLE FALLS   CLOUDY    34  30  86 CALM      29.60R
LITCHFIELD     CLOUDY    36  34  93 CALM      29.58S
BUFFALO        CLOUDY    36  32  85 CALM      29.59S
MAPLE LAKE     CLOUDY    34  32  91 CALM      29.59R
$$
MNZ037-044-045-052-053-250100-
   East Central Minnesota

CITY           SKY/WX    TMP DP  RH WIND       PRES   REMARKS
PRINCETON      CLOUDY    37  32  81 NE3       29.60R
MORA           CLOUDY    34  30  86 CALM      29.62R
CAMBRIDGE      CLOUDY    39  28  65 CALM      29.59R
RUSH CITY      CLOUDY    33  30  88 CALM      29.61R
MOOSE LAKE     CLOUDY    36  28  75 CALM      29.60R
HINCKLEY       CLOUDY    36  32  87 CALM      29.61R
CLOQUET        CLOUDY    30  27  86 E14G21    29.62R WCI  20
MCGREGOR       CLOUDY    36  30  80 CALM      29.62R
$$
MNZ071>073-080-081-089-090-097-098-250100-
   Southwest Minnesota

CITY           SKY/WX    TMP DP  RH WIND       PRES   REMARKS
MONTEVIDEO     LGT RAIN  36  32  87 N5        29.59R
GRANITE FALLS  LGT RAIN  35  32  89 CALM      29.59S
CANBY          LGT RAIN  36  34  92 W3        29.59R
MARSHALL       CLOUDY    36  30  80 W7        29.58S
REDWOOD FALLS  CLOUDY    37  33  85 NW3       29.57S
OLIVIA         CLOUDY    32  32 100 CALM      29.57S
PIPESTONE      CLOUDY    36  34  93 W6        29.56S
WINDOM         MOCLDY    36  34  93 CALM      29.57S
WORTHINGTON    CLOUDY    36  30  80 SW7       29.58S
JACKSON        CLOUDY    36  32  87 SW7       29.58S
TRACY          RAIN      37  34  91 CALM      29.57S
SLAYTON        CLOUDY    35  32  90 CALM      29.57S
$$
MNZ065>067-074>077-082>085-091>093-250100-
   South Central Minnesota

CITY           SKY/WX    TMP DP  RH WIND       PRES   REMARKS
MANKATO        CLOUDY    37  32  81 W5        29.59R
NEW ULM        CLOUDY    34  34 100 CALM      29.58S
ST JAMES       CLOUDY    37  34  87 W5        29.59S
FAIRMONT       CLOUDY    36  30  80 W6        29.57S
GLENCOE        CLOUDY    34  33  95 CALM      29.58S
FARIBAULT      CLOUDY    36  32  87 CALM      29.59R
OWATONNA       CLOUDY    37  36  93 CALM      29.58S
WASECA         CLOUDY    34  32  93 W5        29.60R WCI  30
ALBERT LEA     CLOUDY    37  36  93 SW6       29.58S
$$
MNZ078>079-086>088-094>096-250100-
   Southeast Minnesota

CITY           SKY/WX    TMP DP  RH WIND       PRES   REMARKS
ROCHESTER      CLOUDY    34  31  88 S5        29.59S WCI  30
6HR MIN TEMP:  33; 6HR MAX TEMP:  36;

RED WING       CLOUDY    36  30  80 CALM      29.60R
STANTON        CLOUDY    37  32  82 CALM      29.58S
DODGE CENTER   CLOUDY    34  34 100 CALM      29.58S
WINONA         CLOUDY    34  32  93 CALM      29.62R
AUSTIN         CLOUDY    37  34  87 CALM      29.59S
PRESTON        CLOUDY    34  32  91 CALM      29.60S
$$
ABBREVIATIONS USED IN REMARKS
   TC - TEMPERATURES IN CELSIUS
  WCI - WIND CHILL INDEX
   HX - HEAT INDEX
  VSB - VISIBILITY
$$


USA.gov is the U.S. government's official web portal to all federal, state and local government web resources and services.